(1685) Toro
ephemeris date magn radius delta ra dec elong phase
Today24 Aug 202618.11.728 AU1.749 AU14h36m-18°18'72.0°33.8°
(1685) Toro - 2026-08-24
astro.vanbuitenen.nl


 
-1 year
-1 month
-1 day
Now
+1 day
+1 month
+1 year

The interactive orbit chart above shows the body's path through the solar system and its position at the given date. Green and blue lines are shown perpendicular to the ecliptic plane: Green if the path is above the ecliptic plane, blue if it is below. (Left-click and drag to rotate the view; Right-click and drag to move the view; Use scroll wheel to zoom in our out.)

The orbital elements of Toro are:

            e (Eccentricity)                : 0.4359922
            a (Semimajor axis)              : 1.3678594
            i (Inclination)                 : 9.38177
            Ω (Longitude of ascending node) : 274.20784
            ω (Argument of perihelion)      : 127.27004
            M (Mean anomaly)                : 205.91450
            Epoch                           : 2026 Jun 09

            L (Longitude of perihelion)     : 221.85036
            B (Latitude of perihelion)      : 7.45361
            P (Orbital period in years)     : 1.60            
        

The light curve chart below shows the estimated development of the minor planet's magnitude.


The all-sky chart below shows the path of the minor planet over the same period as the light curve. The current position is marked yellow.





The following chart shows the path of the minor planet in the next few days. The field of view is optimized for (~10x50) binoculars and finderscopes.




Ephemerides:
Date       Time       RA (2000)    DEC (2000)    delta   radius  elong  phase   PA    magn
2026-08-24 00:00 UT   14 36 17.6   -18 18 32     1.749    1.728   72.0   33.8   109   18.1 
2026-08-24 22:20 UT   14 37 50.2   -18 21 28     1.756    1.724   71.4   33.8   109   18.1 
2026-08-25 00:00 UT   14 37 57.1   -18 21 42     1.756    1.724   71.4   33.8   109   18.1 
2026-08-26 00:00 UT   14 39 37.6   -18 24 55     1.763    1.720   70.8   33.7   109   18.1 
2026-08-27 00:00 UT   14 41 19.1   -18 28 12     1.770    1.716   70.3   33.7   109   18.1 
2026-08-28 00:00 UT   14 43 01.6   -18 31 32     1.776    1.712   69.7   33.6   109   18.1 
2026-08-29 00:00 UT   14 44 45.0   -18 34 55     1.783    1.708   69.1   33.6   108   18.1 
2026-08-30 00:00 UT   14 46 29.4   -18 38 20     1.789    1.703   68.6   33.5   108   18.1 
2026-08-31 00:00 UT   14 48 14.8   -18 41 48     1.796    1.699   68.0   33.4   108   18.1 
2026-09-01 00:00 UT   14 50 01.1   -18 45 19     1.802    1.695   67.5   33.4   108   18.1 
2026-09-02 00:00 UT   14 51 48.4   -18 48 52     1.808    1.690   66.9   33.3   108   18.1 
2026-09-03 00:00 UT   14 53 36.6   -18 52 27     1.814    1.686   66.4   33.2   108   18.1 
2026-09-04 00:00 UT   14 55 25.8   -18 56 04     1.820    1.682   65.9   33.2   108   18.1 
2026-09-05 00:00 UT   14 57 15.9   -18 59 42     1.826    1.677   65.3   33.1   107   18.1 
2026-09-06 00:00 UT   14 59 07.0   -19 03 22     1.832    1.673   64.8   33.0   107   18.1 
2026-09-07 00:00 UT   15 00 59.0   -19 07 04     1.837    1.668   64.3   33.0   107   18.1 
2026-09-08 00:00 UT   15 02 52.0   -19 10 46     1.843    1.663   63.7   32.9   107   18.1 
2026-09-09 00:00 UT   15 04 46.0   -19 14 30     1.848    1.659   63.2   32.8   107   18.1 
2026-09-10 00:00 UT   15 06 40.9   -19 18 15     1.854    1.654   62.7   32.7   107   18.1 
2026-09-11 00:00 UT   15 08 36.8   -19 21 60     1.859    1.650   62.2   32.7   107   18.1 
2026-09-12 00:00 UT   15 10 33.6   -19 25 46     1.864    1.645   61.6   32.6   106   18.1 


    Terminology:
            
    delta:  distance between minor planet and earth in AU
    radius: distance between minor planet and sun in AU
    magn:   magnitude (brightness) estimate    
    ra:     right ascension in hours (24h = 360deg)
    dec:    declination in degrees
    elong:  elongation in degrees (angle sun-earth-minor planet)    
    phase:  phase angle in degrees (angle sun-minor planet-earth)        
    AU:     Astronomical Unit (mean distance between earth and sun: 149597870.7 km
    

Orbital elements provided by the MPC (Minor Planet Center).
Calculations by a modified version of AAPlus, a C# implementation of the AA+ project by PJ Naughter from the algorithms presented in the book "Astronomical Algorithms" by Jean Meeus.
NGC2000 dso catalog and star labels from VizieR as provided by the Strasbourg astronomical Data Center.
Tycho2 catalog from the ESO archive.